sat.trackr.live / text

‹ back to catalog

STARLINK-2588

NORAD 48398 · 2021-038AX

PAYLOAD ACTIVE UNKNOWN

§ Identity

Operator
Country
US
Launch date
2021-05-04
Launch site
AFETR
Launch vehicle
Mass (kg)
RCS (m²)

Purposes: comms

External: N2YO · Heavens-Above · Gunter

§ Orbital elements

Epoch: 2026-05-24T23:03:56.570688Z

Period
94.79 min
Inclination
53.0705°
Eccentricity
0.0003079
Mean motion
15.19110830 rev/d
Perigee alt
506.4 km
Apogee alt
510.6 km
Semi-major
6,886.7 km
B*
1.1774e-3
RAAN
350.8978°
Arg perigee
28.4916°
Mean anomaly
331.6246°
Rev number
28,014

§ Raw data

STARLINK-25881 48398U 21038AX  26144.96107142  .00024790  00000+0  11774-2 0  99962 48398  53.0705 350.8978 0003079  28.4916 331.6246 15.19110830280142

JSON: /api/v1/satellites/48398 · /tle

For live sub-satellite position, see the globe view (requires WebGL).

§ Visibility from observer

Set your observer location to see the next 7 days of passes ≥ 10°. The values pass through the URL so the page stays shareable.

No JS? Fill the form by hand. The geolocation button needs JavaScript.